Location: Kershaw
(34.5481°N, 80.5823°W)
Time: 20:39:39
(UTC+00:00)

Courier 1B Rocket - Pass Details

Date: 30 September 2022
Orbit: 920 x 1202 km, 28.3° (Epoch: 01 December)

Event Time Altitude Azimuth Distance (km) Brightness Sun altitude
Rises 02:49:17 0° 254° (WSW) 3,606 8.4 -44.0°
Enters shadow 02:51:21 - 250° (WSW) 2,874 7.7 -44.3°
Reaches altitude 10° 02:52:02 10° 248° (WSW) 2,636 - -44.5°
Maximum altitude 02:58:02 47° 176° (S) 1,192 - -45.4°
Drops below altitude 10° 03:03:58 10° 104° (ESE) 2,610 - -46.4°
Sets 03:06:41 0° 99° (E) 3,567 - -46.8°
